Find Hai Yang 4-01

NORAD ID: 61936 Int'l Des: 2024-208 Owner: GYZ/CASC Country: CN operational
LEOCIRCULARRETROGRADESSO

現在のビュー

3D地球を読み込み中...

Hai Yang 4-01について

説明を読み込み中...

次回通過

Passes for default location (London). Set your location on the main map for personalized predictions.

高度履歴

Loading altitude history...

軌道要素

1 61936U 24208A 26150.87385448 -.00000037 00000-0 18719-5 0 9994
2 61936 98.0031 158.8684 0001158 133.1850 226.9455 14.73279479 82897
Epoch: May 30, 2026 • Age: 6 hours

現在のステータス

高度 669.9 km
速度 7.52 km/s
衛星直下点 -47.77°S, 129.76°W
打ち上げ日 Nov 13, 2024
運用期間 1.5 years
タイプ other

技術仕様

分類 Payload
質量 1500.00 kg
乾燥質量 1500.00 kg
総質量 1500.00 kg
長さ 1.00 m
直径 1.00 m
スパン 4.00 m
形状 Box + 2 Pan
製造者 CAST
バスタイプ CAST-968
フェーズステータス In Orbit
所有者/国 GYZ/CASC/CN

Most Searched